STARLINK-32292, 61889

Orbit data source: Space-Track

STARLINK-32292, 61889 is a payload satellite owned by SpaceX/Seattle (US) in LEO that was launched on Sat, 09 Nov 2024 UTC via an FALCON 9 launch vehicle from the Air Force Western Test Range (AFWTR). Payload-class satellites include a variety of spacecraft equipped with specific instruments for various scientific and technological missions. These include communications satellites like Starlink; space stations such as the ISS; scientific satellites like the Hubble; Earth observation satellites from companies like Planet Labs, Umbra, and HawkEye 360; GPS; miniature CubeSats for education and research; and military/defense satellites.

Loading next visibility...
Identifier
61889, 2024-204R
Orbit
LEO
Country
Flag of USUS
Related business
Manufacturer
SpaceX/Seattle
Mission
Operational Commercial Communications
Bus & Motor
STARLINK V2M, Unknown motor
Mass
730 kg wet, ~700 kg dry
Launch date (UTC)
2024-11-09 (2 years ago)
Launch vehicle
FALCON 9
Launch site
Air Force Western Test Range (AFWTR)
Object type
Payload
Rocket body
Debris
Shape & HBR
Box + 2 Pan, 17.7 m
Radar Cross Section
33.884 m², Large (>1 m²)

Expand to show TLE details & history
Last TLE update: 22 hours ago

TLE from 22 hours ago
0 STARLINK-32292
1 61889U 24204R   26170.93059976  .00000034  00000-0  12151-4 0  9999
2 61889  53.1612  10.5853 0001447  87.4607 272.6561 15.34396801 90774
Epoch: 2026-06-19T22:20Z
TLE epoch observation values (Epoch: 2026-06-19T22:20:03.819Z)
Latitude
-0.00003°
Longitude
127.41686°
Altitude
463.568 km
Speed
7.636 km/s
True Right ascension
00h 42m 20s
True Declination
0° 00' 00"
Sunlit
Object was in daylight at epoch
Visualization orbit readout
Latitude
Unknown
Longitude
Unknown
Altitude
Unknown
Speed
Unknown
Apparent Right ascension
Unknown
Apparent Declination
Unknown
Sunlit
N/A
Visualization observer readout
Local Sidereal Time
07:12:14
Azimuth
Unknown
Elevation
Unknown
Doppler factor
Unknown
Orbital elements
Apogee altitude
463.959 km
Perigee altitude
461.98 km
Semi-major axis
6,841.106 km
Eccentricity
0.00014
Inclination
53.1612°
RAAN
10.5853°
Arg. of periapsis
87.4607°
True anomaly
272.63954°
Mean anomaly
272.6561°
Eccentric anomaly
272.64782°
Mean motion
3.83578 °/min
Orbital period
93.85 mins
BSTAR
0.000012151
Loading maneuver chart data...
Computing Atmospheric mass density...
Loading historical data...
Loading historical data...
Loading historical data...
Loading historical data...
Loading historical data...
Loading historical data...
Loading historical data...

Documentation

Showing up to 5 results
|